This demonstration page uses our WeatherBlox Daily Observations layout. Learn more.

Left ArrowRight Arrow

39.08367, -84.50855

Hourly Observations for March 2, 2016

Temp ( °F °C ) Dew Point ( °F °C ) Humidity (%) Winds ( mph kmh ) Pressure ( in mb ) Visibility ( mi km ) Precip ( " mm )
12:05 am 00:05 Cloudy 31 -0.6 22 -5.6 69 69 NW 12 19 30.06 1018 10 16.0934 N/A
12:42 am 00:42 Cloudy 30 -1.1 21 -6.1 69 69 NNW 16 26 30.06 1018 10 16.0934 N/A
12:53 am 00:53 Cloudy 30 -1.1 21 -6.1 69 69 NNW 13 20 30.04 1017 10 16.0934 N/A
1:39 am 01:39 Cloudy 29 -1.7 18 -7.8 63 63 NW 9 15 30.09 1019 10 16.0934 N/A
1:53 am 01:53 Cloudy 29 -1.7 18 -7.8 63 63 NW 7 11 30.08 1019 10 16.0934 N/A
2:53 am 02:53 Cloudy 28 -2.2 18 -7.8 66 66 WNW 9 15 30.1 1019 10 16.0934 N/A
3:53 am 03:53 Cloudy 28 -2.2 18 -7.8 66 66 WNW 8 13 30.11 1020 10 16.0934 N/A
4:53 am 04:53 Cloudy with Light Snow 27 -2.8 20 -6.7 75 75 WNW 7 11 30.13 1020 7 11.26538 N/A
5:01 am 05:01 Cloudy 27 -2.8 19 -7.2 72 72 WNW 7 11 30.15 1021 9 14.48406 N/A
5:53 am 05:53 Cloudy 27 -2.8 17 -8.3 66 66 W 13 20 30.16 1021 10 16.0934 N/A
6:53 am 06:53 Cloudy 26 -3.3 17 -8.3 69 69 W 10 17 30.19 1022 10 16.0934 N/A
7:53 am 07:53 Cloudy 26 -3.3 16 -8.9 66 66 WNW 12 19 30.2 1023 10 16.0934 N/A
8:53 am 08:53 Mostly Cloudy 27 -2.8 16 -8.9 63 63 WNW 6 9 30.22 1023 10 16.0934 N/A
9:53 am 09:53 Mostly Cloudy 29 -1.7 17 -8.3 61 61 NW 9 15 30.23 1024 10 16.0934 N/A
10:53 am 10:53 Mostly Cloudy 29 -1.7 16 -8.9 58 58 W 7 11 30.24 1024 10 16.0934 N/A
11:53 am 11:53 Partly Cloudy 30 -1.1 15 -9.4 54 54 W 7 11 30.24 1024 10 16.0934 N/A
12:53 pm 12:53 Mostly Sunny 34 1.1 16 -8.9 48 48 VRB 7 11 30.23 1024 10 16.0934 N/A
1:53 pm 13:53 Sunny 35 1.7 14 -10 42 42 VRB 3 6 30.2 1023 10 16.0934 N/A
2:53 pm 14:53 Sunny 37 2.8 13 -10.6 37 37 W 10 17 30.19 1022 10 16.0934 N/A
3:53 pm 15:53 Sunny 37 2.8 13 -10.6 37 37 W 8 13 30.18 1022 10 16.0934 N/A
4:53 pm 16:53 Sunny 37 2.8 14 -10 39 39 SW 7 11 30.19 1023 10 16.0934 N/A
5:53 pm 17:53 Sunny 35 1.7 14 -10 42 42 SW 6 9 30.19 1022 10 16.0934 N/A
6:53 pm 18:53 Clear 33 0.6 14 -10 45 45 W 6 9 30.21 1023 10 16.0934 N/A
7:53 pm 19:53 Clear 31 -0.6 19 -7.2 61 61 N N/A 30.21 1023 10 16.0934 N/A
8:53 pm 20:53 Clear 30 -1.1 19 -7.2 64 64 N N/A 30.2 1023 10 16.0934 N/A
9:53 pm 21:53 Clear 28 -2.2 21 -6.1 75 75 N N/A 30.2 1023 10 16.0934 N/A
10:53 pm 22:53 Clear 27 -2.8 23 -5 85 85 N N/A 30.21 1023 10 16.0934 N/A
11:53 pm 23:53 Clear 27 -2.8 23 -5 85 85 N N/A 30.2 1023 10 16.0934 N/A

Powered by AerisWeather